IW1PUR Weather Reports


time (UTC)temp
C
wind
direction
speed
KPH
gust
KPH
rain 1hr
cm
rain 24hr
cm
rain mn
cm
humidity
%
barometer
mb
20260507145538 14 225 0.0 0.0 0.13 0.23 0.23 57 1012.2
20260507145137 14 180 0.0 0.0 0.13 0.23 0.23 57 1012.3
20260507144736 14 270 0.0 0.0 0.13 0.23 0.23 57 1012.3
20260507144334 14 225 0.0 0.0 0.13 0.23 0.23 56 1012.3
20260507143732 14 90 0.0 1.6 0.10 0.23 0.23 55 1012.4
20260507143331 14 180 0.0 0.0 0.08 0.18 0.20 54 1012.4
20260507142930 14 180 0.0 1.6 0.08 0.18 0.18 53 1012.3
20260507142528 15 90 0.0 1.6 0.05 0.13 0.18 51 1012.4
20260507142127 15 45 0.0 0.0 0.03 0.10 0.13 51 1012.5
20260507141725 15 135 0.0 0.0 0.03 0.10 0.10 50 1012.5
20260507141324 15 225 0.0 0.0 0.00 0.08 0.10 49 1012.4
20260507140722 15 135 0.0 1.6 0.00 0.08 0.08 47 1012.5
20260507140321 15 135 0.0 1.6 0.00 0.08 0.08 46 1012.4
20260507135919 16 180 0.0 1.6 0.00 0.08 0.08 47 1012.5
20260507135518 16 45 0.0 1.6 0.00 0.08 0.08 46 1012.4
20260507135117 16 135 0.0 0.0 0.00 0.08 0.08 46 1012.4
20260507134716 16 90 0.0 0.0 0.00 0.08 0.08 46 1012.5
20260507134315 16 315 0.0 1.6 0.00 0.08 0.08 47 1012.4
20260507133913 15 270 0.0 0.0 0.00 0.08 0.08 48 1012.5
20260507132109 15 90 0.0 0.0 0.05 0.08 0.08 48 1012.5
20260507131708 15 0 0.0 0.0 0.05 0.08 0.08 50 1012.5
20260507131307 15 135 0.0 0.0 0.05 0.08 0.08 51 1012.5
20260507130905 15 135 0.0 0.0 0.05 0.08 0.08 52 1012.5
20260507130504 15 315 0.0 1.6 0.05 0.08 0.08 51 1012.5
20260507125100 15 180 0.0 0.0 0.05 0.08 0.08 50 1012.6
20260507124700 15 45 0.0 1.6 0.05 0.08 0.08 49 1012.5
20260507124258 15 180 0.0 0.0 0.05 0.08 0.08 49 1012.5
20260507123456 15 135 0.0 0.0 0.03 0.05 0.08 48 1012.5
20260507123054 15 135 0.0 0.0 0.00 0.03 0.05 48 1012.5
20260507122653 15 135 0.0 0.0 0.00 0.03 0.03 48 1012.4
20260507122251 15 270 0.0 0.0 0.00 0.03 0.03 48 1012.4
20260507121649 15 0 0.0 1.6 0.00 0.03 0.03 49 1012.2
20260507121248 15 113 0.0 3.2 0.00 0.03 0.03 48 1012.3
20260507120847 15 90 0.0 1.6 0.00 0.03 0.03 48 1012.3
20260507120044 15 180 0.0 0.0 0.00 0.03 0.03 51 1012.4
20260507115643 15 45 0.0 0.0 0.00 0.03 0.03 51 1012.4
20260507115242 15 23 0.0 0.0 0.00 0.03 0.03 52 1012.4
20260507114840 14 45 0.0 0.0 0.00 0.03 0.03 54 1012.5
20260507114440 14 0 0.0 0.0 0.00 0.03 0.03 54 1012.6
20260507114239 14 315 0.0 0.0 0.00 0.03 0.03 54 1012.5
20260507113838 14 135 0.0 0.0 0.00 0.03 0.03 54 1012.7
20260507113437 14 180 0.0 0.0 0.00 0.03 0.03 54 1012.6
20260507113035 14 45 0.0 1.6 0.03 0.03 0.03 54 1012.6
20260507112635 14 0 0.0 3.2 0.03 0.03 0.03 53 1012.6
20260507112234 14 0 0.0 0.0 0.03 0.03 0.03 52 1012.6
20260507111835 14 90 0.0 3.2 0.03 0.03 0.03 52 1012.6
20260507111431 14 225 0.0 1.6 0.03 0.03 0.03 50 1012.7
20260507111029 15 0 0.0 3.2 0.03 0.03 0.03 50 1012.6
20260507110628 15 45 0.0 0.0 0.03 0.03 0.03 48 1012.6
20260507110226 15 180 0.0 1.6 0.03 0.03 0.03 49 1012.7
20260507104823 15 90 0.0 0.0 0.03 0.03 0.03 47 1012.5
20260507104422 15 180 0.0 1.6 0.03 0.03 0.03 47 1012.5
20260507104020 15 90 0.0 3.2 0.03 0.03 0.03 47 1012.6
20260507103620 15 90 0.0 0.0 0.00 0.00 0.03 48 1012.6
20260507103218 15 90 0.0 1.6 0.00 0.00 0.00 49 1012.5
20260507102216 15 180 0.0 1.6 0.00 0.00 0.00 44 1012.8
20260507101815 15 135 0.0 1.6 0.00 0.00 0.00 44 1012.7
20260507101413 15 135 0.0 0.0 0.00 0.00 0.00 43 1012.6
20260507101013 15 90 0.0 1.6 0.00 0.00 0.00 43 1012.7
20260507100612 15 225 0.0 0.0 0.00 0.00 0.00 44 1012.7
20260507100210 15 135 0.0 1.6 0.00 0.00 0.00 44 1012.7
20260507095809 15 45 0.0 1.6 0.00 0.00 0.00 43 1012.7
20260507095608 16 45 0.0 1.6 0.00 0.00 0.00 43 1012.6
20260507095207 16 0 0.0 1.6 0.00 0.00 0.00 42 1012.5
20260507094807 16 225 0.0 1.6 0.00 0.00 0.00 42 1012.6
20260507094405 15 45 0.0 3.2 0.00 0.00 0.00 43 1012.6
20260507094004 15 45 0.0 1.6 0.00 0.00 0.00 44 1012.5
20260507093603 15 90 1.6 6.4 0.00 0.00 0.00 43 1012.5
20260507093202 15 135 0.0 3.2 0.00 0.00 0.00 45 1012.5
20260507092159 15 0 0.0 0.0 0.00 0.00 0.00 46 1012.5
20260507091758 15 45 0.0 0.0 0.00 0.00 0.00 46 1012.5
20260507090955 15 225 0.0 3.2 0.00 0.00 0.00 46 1012.7
20260507090555 15 135 0.0 0.0 0.00 0.00 0.00 47 1012.5
20260507085953 14 0 0.0 0.0 0.00 0.00 0.00 48 1012.4
20260507085552 14 180 0.0 0.0 0.00 0.00 0.00 47 1012.4
20260507085151 14 45 0.0 0.0 0.00 0.00 0.00 48 1012.5
20260507084749 14 180 0.0 0.0 0.00 0.00 0.00 47 1012.5
20260507084349 14 45 0.0 1.6 0.00 0.00 0.00 47 1012.4
20260507083947 14 135 0.0 0.0 0.00 0.00 0.00 47 1012.4
20260507083746 15 180 0.0 0.0 0.00 0.00 0.00 46 1012.3
20260507083345 15 315 0.0 1.6 0.00 0.00 0.00 45 1012.1
20260507082943 15 225 0.0 0.0 0.00 0.00 0.00 45 1012.2
20260507082543 15 225 0.0 0.0 0.00 0.00 0.00 45 1012.1
20260507082142 15 0 0.0 0.0 0.00 0.00 0.00 45 1012.0
20260507080738 15 248 0.0 1.6 0.00 0.00 0.00 44 1011.8
20260507080337 15 90 1.6 4.8 0.00 0.00 0.00 44 1011.9
20260507075935 15 315 0.0 0.0 0.00 0.00 0.00 44 1012.0
20260507075734 15 45 0.0 1.6 0.00 0.00 0.00 44 1012.0
20260507075333 15 0 0.0 0.0 0.00 0.00 0.00 43 1012.0
20260507074931 15 45 0.0 1.6 0.00 0.00 0.00 43 1011.9
20260507074530 16 45 1.6 3.2 0.00 0.00 0.00 42 1011.7
20260507074129 16 0 0.0 1.6 0.00 0.00 0.00 43 1011.7
20260507072726 15 225 0.0 0.0 0.00 0.00 0.00 46 1011.6
20260507072324 14 135 0.0 1.6 0.00 0.00 0.00 49 1011.8
20260507071923 13 90 0.0 0.0 0.00 0.00 0.00 51 1011.8
20260507071523 13 45 0.0 1.6 0.00 0.00 0.00 51 1011.8
20260507070520 13 135 0.0 0.0 0.00 0.00 0.00 52 1011.9
20260507070118 13 45 0.0 0.0 0.00 0.00 0.00 52 1011.7
20260507065717 13 90 0.0 1.6 0.00 0.00 0.00 52 1011.7
20260507065316 13 90 0.0 0.0 0.00 0.00 0.00 52 1011.7
20260507064914 13 45 3.2 4.8 0.00 0.00 0.00 53 1011.7
20260507064713 13 0 0.0 0.0 0.00 0.00 0.00 53 1011.7
20260507064312 13 23 0.0 0.0 0.00 0.00 0.00 53 1011.7
20260507063911 13 90 0.0 0.0 0.00 0.23 0.00 53 1011.7
20260507063509 13 135 0.0 0.0 0.00 0.28 0.00 54 1011.5
20260507063108 12 0 0.0 0.0 0.00 0.28 0.00 54 1011.7
20260507062707 12 45 0.0 0.0 0.00 0.28 0.00 54 1011.6
20260507061704 12 270 0.0 0.0 0.00 0.28 0.00 55 1011.4
20260507061303 12 315 0.0 0.0 0.00 0.28 0.00 55 1011.4
20260507060901 12 180 0.0 1.6 0.00 0.28 0.00 55 1011.4
20260507060501 12 315 0.0 0.0 0.00 0.28 0.00 56 1011.3
20260507055859 12 90 0.0 0.0 0.00 0.28 0.00 57 1011.4
20260507055458 12 135 0.0 0.0 0.00 0.28 0.00 57 1011.4
20260507055057 12 0 0.0 1.6 0.00 0.28 0.00 58 1011.3
20260507054655 12 315 0.0 0.0 0.00 0.28 0.00 59 1011.3
20260507054254 12 0 0.0 0.0 0.00 0.28 0.00 60 1011.2
20260507053853 12 225 0.0 1.6 0.00 0.28 0.00 61 1011.2
20260507053252 12 270 0.0 0.0 0.00 0.28 0.00 61 1011.2
20260507052850 12 90 0.0 0.0 0.00 0.28 0.00 61 1011.2
20260507052449 12 45 0.0 1.6 0.00 0.28 0.00 61 1011.1
20260507052048 12 315 0.0 0.0 0.00 0.28 0.00 62 1011.1
20260507051646 12 248 0.0 1.6 0.00 0.28 0.00 62 1011.0
20260507051245 12 45 0.0 0.0 0.00 0.28 0.00 62 1010.9
20260507050843 12 180 0.0 0.0 0.00 0.28 0.00 62 1010.9
20260507050442 12 0 0.0 1.6 0.00 0.28 0.00 62 1010.7
20260507045439 11 113 0.0 0.0 0.00 0.28 0.00 64 1010.6
20260507045038 11 23 0.0 1.6 0.00 0.28 0.00 64 1010.7
20260507044637 11 45 0.0 1.6 0.00 0.28 0.00 64 1010.6
20260507044235 11 293 0.0 0.0 0.00 0.28 0.00 64 1010.6
20260507043834 11 45 0.0 0.0 0.00 0.28 0.00 64 1010.6
20260507043433 11 293 0.0 0.0 0.00 0.28 0.00 64 1010.6
20260507042430 12 135 0.0 1.6 0.00 0.30 0.00 62 1010.5
20260507042029 12 225 0.0 0.0 0.00 0.30 0.00 62 1010.5
20260507041627 12 45 0.0 0.0 0.00 0.30 0.00 62 1010.4
20260507041226 12 45 0.0 1.6 0.00 0.30 0.00 62 1010.5
20260507040825 12 315 0.0 0.0 0.00 0.30 0.00 62 1010.3
20260507040423 12 68 0.0 0.0 0.00 0.36 0.00 63 1010.4
20260507035822 12 315 0.0 1.6 0.00 0.36 0.00 63 1010.4
20260507035420 12 0 0.0 0.0 0.00 0.38 0.00 63 1010.4
20260507035020 12 45 0.0 1.6 0.00 0.41 0.00 63 1010.5
20260507034618 12 45 0.0 0.0 0.00 0.41 0.00 63 1010.4
20260507034217 12 315 0.0 0.0 0.00 0.41 0.00 63 1010.5
20260507033815 12 23 0.0 0.0 0.00 0.41 0.00 62 1010.5
20260507033414 12 45 0.0 0.0 0.00 0.41 0.00 62 1010.5
20260507033013 12 180 0.0 0.0 0.00 0.41 0.00 62 1010.3
20260507032010 12 90 0.0 1.6 0.00 0.41 0.00 63 1010.3
20260507031609 12 45 0.0 0.0 0.00 0.41 0.00 63 1010.3
20260507031207 12 90 0.0 0.0 0.00 0.41 0.00 63 1010.4
20260507030806 12 45 0.0 1.6 0.00 0.41 0.00 63 1010.4
20260507030404 12 135 0.0 0.0 0.00 0.41 0.00 63 1010.3
20260507030003 12 0 0.0 0.0 0.00 0.41 0.00 63 1010.2
20260507025401 12 0 0.0 0.0 0.00 0.43 0.00 63 1010.4
20260507025000 12 45 0.0 0.0 0.00 0.51 0.00 63 1010.3
20260507024558 12 45 0.0 0.0 0.00 0.53 0.00 63 1010.3
20260507024157 12 45 0.0 1.6 0.00 0.56 0.00 63 1010.3
20260507023756 12 113 0.0 0.0 0.00 0.58 0.00 64 1010.2
20260507022753 12 45 0.0 0.0 0.00 0.69 0.00 63 1010.3
20260507022351 12 45 0.0 1.6 0.00 0.74 0.00 63 1010.3
20260507021950 12 135 0.0 0.0 0.00 0.86 0.00 63 1010.2
20260507021548 12 45 0.0 0.0 0.00 0.97 0.00 63 1010.3
20260507021147 12 45 0.0 0.0 0.00 1.02 0.00 63 1010.3
20260507020751 12 180 0.0 0.0 0.00 1.04 0.00 62 1010.3
20260507020545 12 23 0.0 0.0 0.00 1.04 0.00 62 1010.3
20260507020144 12 90 0.0 0.0 0.00 1.07 0.00 62 1010.3
20260507015743 12 135 0.0 0.0 0.00 1.09 0.00 62 1010.3
20260507015341 12 90 0.0 0.0 0.00 1.17 0.00 61 1010.2
20260507014940 12 90 0.0 1.6 0.00 1.19 0.00 61 1010.3
20260507014539 12 270 0.0 0.0 0.00 1.22 0.00 61 1010.3
20260507014137 12 225 0.0 1.6 0.00 1.24 0.00 61 1010.3
20260507013135 12 270 0.0 0.0 0.00 1.42 0.00 60 1010.3
20260507012734 12 135 0.0 0.0 0.00 1.42 0.00 59 1010.3
20260507012332 12 45 0.0 0.0 0.00 1.45 0.00 59 1010.3
20260507011931 12 90 0.0 1.6 0.00 1.50 0.00 58 1010.3
20260507011530 12 45 0.0 0.0 0.00 1.52 0.00 58 1010.3
20260507011128 12 45 0.0 0.0 0.00 1.57 0.00 58 1010.2
20260507010527 12 0 0.0 0.0 0.00 1.60 0.00 58 1010.4
20260507010126 12 45 0.0 0.0 0.00 1.63 0.00 58 1010.4
20260507005725 12 45 0.0 0.0 0.00 1.68 0.00 58 1010.5
20260507005324 12 90 0.0 1.6 0.00 1.68 0.00 57 1010.5
20260507004922 12 180 0.0 1.6 0.00 1.68 0.00 58 1010.5
20260507004521 12 45 0.0 0.0 0.00 1.70 0.00 58 1010.5
20260507004320 12 90 0.0 0.0 0.00 1.70 0.00 58 1010.4
20260507003919 12 315 0.0 0.0 0.00 1.70 0.00 58 1010.4
20260507003517 12 315 0.0 0.0 0.00 1.70 0.00 58 1010.4
20260507003116 12 0 0.0 0.0 0.00 1.70 0.00 57 1010.4
20260507002716 12 180 0.0 0.0 0.00 1.70 0.00 57 1010.4
20260507002315 12 113 0.0 0.0 0.00 1.70 0.00 57 1010.4
20260507001913 12 45 0.0 0.0 0.00 1.70 0.00 56 1010.5
20260507001311 12 180 0.0 0.0 0.00 1.70 0.00 55 1010.4
20260507000910 12 45 0.0 3.2 0.00 1.70 0.00 54 1010.4
20260507000509 12 135 0.0 1.6 0.00 1.70 0.00 53 1010.4
20260507000108 12 90 0.0 0.0 0.00 1.70 0.00 53 1010.5
20260506235707 12 180 0.0 0.0 0.00 1.70 0.00 53 1010.5
20260506235105 12 135 0.0 3.2 0.00 1.70 0.00 54 1010.5
20260506234703 12 135 0.0 3.2 0.00 1.70 0.00 54 1010.5
20260506234302 12 0 0.0 3.2 0.00 1.70 0.00 55 1010.5
20260506233901 12 23 0.0 1.6 0.00 1.70 0.00 55 1010.5
20260506233459 12 113 0.0 0.0 0.00 1.70 0.00 55 1010.6
20260506233058 12 158 0.0 0.0 0.00 1.70 0.00 55 1010.5
20260506232657 12 180 0.0 1.6 0.00 1.70 0.00 55 1010.5
20260506231654 12 135 0.0 0.0 0.00 1.70 0.00 54 1010.6
20260506231253 12 45 0.0 1.6 0.00 1.70 0.00 54 1010.6
20260506230852 12 135 0.0 1.6 0.00 1.70 0.00 54 1010.6
20260506230451 12 90 0.0 0.0 0.00 1.70 0.00 53 1010.5
20260506230050 12 225 0.0 0.0 0.00 1.70 0.00 54 1010.6
20260506225448 12 135 0.0 1.6 0.00 1.70 0.00 54 1010.5
20260506225047 12 45 0.0 1.6 0.00 1.70 0.00 54 1010.5
20260506224646 12 68 0.0 0.0 0.00 1.70 0.00 54 1010.5
20260506224244 12 90 0.0 0.0 0.00 1.70 0.00 54 1010.5
20260506223843 12 135 0.0 0.0 0.00 1.70 0.00 54 1010.5
20260506223442 12 135 0.0 0.0 0.00 1.70 0.00 54 1010.5
20260506222840 12 180 0.0 0.0 0.00 1.70 0.00 53 1010.5
20260506222439 12 225 0.0 0.0 0.00 1.70 0.00 53 1010.5
20260506222038 12 0 0.0 1.6 0.00 1.70 0.00 53 1010.5
20260506221638 12 180 0.0 0.0 0.00 1.70 0.00 53 1010.6
20260506221236 12 0 0.0 1.6 0.00 1.70 0.00 53 1010.6
20260506220835 12 248 0.0 1.6 0.00 1.70 0.00 53 1010.5
20260506220434 12 180 0.0 1.6 0.00 0.00 0.00 53 1010.5
20260506220014 12 45 0.0 1.6 0.00 1.70 1.70 53 1010.6
20260506215613 12 225 0.0 0.0 0.00 1.70 1.70 53 1010.6
20260506215212 12 180 0.0 1.6 0.00 1.70 1.70 53 1010.6
20260506214810 12 45 0.0 1.6 0.00 1.70 1.70 53 1010.5
20260506214409 12 180 0.0 0.0 0.00 1.70 1.70 53 1010.5
20260506213807 12 270 0.0 1.6 0.00 1.70 1.70 55 1010.5
20260506213407 12 135 0.0 0.0 0.00 1.70 1.70 55 1010.5
20260506213005 12 45 0.0 0.0 0.00 1.70 1.70 55 1010.5
20260506212604 12 45 0.0 0.0 0.00 1.70 1.70 56 1010.6
20260506212203 12 225 0.0 1.6 0.00 1.70 1.70 57 1010.5
20260506211802 12 90 0.0 1.6 0.00 1.70 1.70 57 1010.5
20260506211402 12 135 0.0 0.0 0.00 1.70 1.70 57 1010.4
20260506210759 12 225 0.0 0.0 0.00 1.70 1.70 57 1010.5
20260506210359 12 203 0.0 0.0 0.00 1.70 1.70 57 1010.3
20260506205959 12 135 0.0 0.0 0.00 1.70 1.70 57 1010.5
20260506205556 12 293 0.0 0.0 0.00 1.70 1.70 57 1010.5
20260506205155 12 135 0.0 1.6 0.00 1.70 1.70 57 1010.4
20260506204754 12 135 0.0 1.6 0.00 1.70 1.70 57 1010.4
20260506204354 12 135 0.0 0.0 0.00 1.70 1.70 56 1010.6
20260506203954 12 113 0.0 0.0 0.00 1.70 1.70 57 1010.4
20260506202951 12 135 0.0 1.6 0.00 1.70 1.70 57 1010.3
20260506202550 12 135 0.0 0.0 0.00 1.70 1.70 56 1010.4
20260506202150 12 225 0.0 0.0 0.00 1.70 1.70 55 1010.4
20260506201750 12 180 0.0 0.0 0.00 1.70 1.70 55 1010.3
20260506201348 12 225 0.0 0.0 0.00 1.70 1.70 55 1010.3
20260506200946 12 135 0.0 0.0 0.00 1.70 1.70 54 1010.2
20260506195945 12 135 0.0 0.0 0.00 1.70 1.70 53 1010.0
20260506195543 12 180 0.0 0.0 0.00 1.70 1.70 53 1009.9
20260506195142 12 180 0.0 0.0 0.00 1.70 1.70 53 1009.9
20260506194741 12 135 0.0 0.0 0.00 1.70 1.70 53 1009.9
20260506194340 12 225 0.0 0.0 0.00 1.70 1.70 52 1009.8
20260506193938 13 135 0.0 0.0 0.00 1.70 1.70 51 1009.7
20260506193737 13 180 0.0 0.0 0.00 1.70 1.70 51 1009.8
20260506193336 13 90 0.0 0.0 0.00 1.70 1.70 50 1009.7
20260506192935 13 135 0.0 0.0 0.00 1.70 1.70 51 1009.7
20260506192533 13 180 0.0 0.0 0.00 1.70 1.70 51 1009.7
20260506192132 13 135 0.0 0.0 0.00 1.70 1.70 51 1009.6
20260506191731 13 90 0.0 1.6 0.00 1.70 1.70 51 1009.6
20260506191329 13 315 0.0 0.0 0.00 1.70 1.70 50 1009.5
20260506190928 13 90 0.0 0.0 0.00 1.70 1.70 50 1009.4
20260506190527 13 68 0.0 0.0 0.00 1.70 1.70 50 1009.4
20260506185123 13 45 0.0 0.0 0.00 1.70 1.70 49 1009.2
20260506184722 13 135 0.0 0.0 0.00 1.70 1.70 48 1009.3
20260506184321 13 315 0.0 0.0 0.00 1.70 1.70 48 1009.2
20260506183919 13 68 0.0 0.0 0.00 1.70 1.70 48 1009.1
20260506183518 13 270 0.0 0.0 0.00 1.70 1.70 49 1008.9
20260506183116 13 45 0.0 1.6 0.00 1.70 1.70 48 1009.0
20260506182715 13 135 0.0 0.0 0.00 1.70 1.70 48 1008.9
20260506181712 13 113 0.0 0.0 0.00 1.70 1.70 50 1008.8
20260506181311 13 135 0.0 0.0 0.00 1.70 1.70 50 1008.8
20260506180910 13 135 0.0 0.0 0.00 1.70 1.70 51 1008.6
20260506180508 13 135 0.0 0.0 0.00 1.70 1.70 50 1008.5
20260506180108 13 180 0.0 0.0 0.00 1.70 1.70 50 1008.5
20260506175706 13 135 0.0 0.0 0.00 1.70 1.70 50 1008.5
20260506175306 13 135 0.0 0.0 0.00 1.70 1.70 50 1008.5
20260506174904 13 180 0.0 0.0 0.00 1.70 1.70 49 1008.5
20260506174302 13 180 0.0 0.0 0.00 1.70 1.70 48 1008.5
20260506173902 13 180 0.0 0.0 0.00 1.70 1.70 48 1008.5
20260506173500 13 135 0.0 0.0 0.00 1.70 1.70 47 1008.5
20260506173100 13 90 0.0 0.0 0.00 1.70 1.70 47 1008.4
20260506172658 13 135 0.0 0.0 0.00 1.70 1.70 46 1008.4
20260506172256 13 270 0.0 0.0 0.00 1.70 1.70 46 1008.3
20260506171855 13 225 0.0 0.0 0.00 1.70 1.70 46 1008.2
20260506170455 14 113 0.0 1.6 0.00 1.70 1.70 44 1008.2
20260506170050 14 90 0.0 0.0 0.00 1.70 1.70 44 1008.2
20260506165649 14 90 0.0 0.0 0.00 1.70 1.70 43 1008.1
20260506165248 14 90 0.0 0.0 0.00 1.70 1.70 42 1008.3
20260506164245 15 270 0.0 0.0 0.00 1.70 1.70 40 1008.4
20260506163844 15 45 0.0 0.0 0.00 1.70 1.70 39 1008.3
20260506163442 15 45 0.0 0.0 0.00 1.70 1.70 37 1008.2
20260506163041 15 180 0.0 0.0 0.00 1.70 1.70 36 1008.3
20260506162639 15 90 0.0 0.0 0.00 1.70 1.70 35 1008.1
20260506162238 15 135 0.0 0.0 0.00 1.70 1.70 35 1008.2
20260506161836 16 180 0.0 0.0 0.00 1.70 1.70 34 1008.2
20260506161435 16 135 0.0 0.0 0.00 1.70 1.70 32 1008.2
20260506160834 17 0 0.0 1.6 0.00 1.70 1.70 32 1008.2
20260506160032 16 135 0.0 0.0 0.00 1.70 1.70 36 1008.1
20260506155631 16 135 0.0 1.6 0.00 1.70 1.70 35 1008.1
20260506155229 16 135 0.0 0.0 0.00 1.70 1.70 37 1008.0
20260506154828 15 90 0.0 3.2 0.00 1.70 1.70 38 1008.1
20260506154426 16 180 0.0 3.2 0.00 1.70 1.70 37 1008.0
20260506154225 16 0 0.0 1.6 0.00 1.70 1.70 35 1008.0
20260506153825 16 135 0.0 0.0 0.00 1.70 1.70 35 1008.1
20260506153423 16 158 0.0 1.6 0.00 1.70 1.70 35 1008.0
20260506153022 16 180 0.0 1.6 0.00 1.70 1.70 34 1008.0
20260506152620 16 45 0.0 0.0 0.00 1.70 1.70 34 1007.9
20260506152219 17 135 0.0 1.6 0.00 1.70 1.70 32 1008.1
20260506151818 17 315 0.0 0.0 0.00 1.70 1.70 32 1007.9
20260506151417 17 135 0.0 0.0 0.00 1.70 1.70 31 1007.9
20260506150414 17 135 0.0 0.0 0.00 1.70 1.70 31 1008.0
20260506150013 17 135 0.0 0.0 0.00 1.70 1.70 31 1007.9